Nome, AK

12:59 AM AKST on December 07, 2016 (GMT -0900)
Nome

Weather History for PAOM - June, 2013

Change the Weather History Date:

Wednesday, June 12, 2013

  Actual Average Record
Temperature  
Mean Temperature 44 °F 47 °F  
Max Temperature 55 °F 54 °F 79 °F (1957)
Min Temperature 33 °F 40 °F 29 °F (1933)
Degree Days  
Heating Degree Days 21 18  
Month to date heating degree days 307 238  
Since 1 June heating degree days 307 238  
Since 1 July heating degree days 14092 13426  
Cooling Degree Days 0    
Month to date cooling degree days 0  
Year to date cooling degree days 0  
Since 1 June cooling degree days 0  
Growing Degree Days 2 (Base 50)    
Moisture  
Dew Point 39 °F    
Average Humidity 0    
Maximum Humidity 0    
Minimum Humidity 0    
Precipitation  
Precipitation 0.00 in 0.02 in 0.41 in (1946)
Month to date precipitation 0.38 0.34  
Year to date precipitation 4.63 4.48  
Snow  
Snow 0.00 in 0.00 in T in (2001)
Month to date snowfall 0.1 0.2  
Since 1 June snowfall 0.1 0.2  
Since 1 July snowfall 65.8 75.6  
Snow Depth 0.00 in    
Sea Level Pressure  
Sea Level Pressure 30.10 in    
Wind  
Wind Speed 2 mph (WSW)    
Max Wind Speed 8 mph    
Max Gust Speed 12 mph    
Visibility 10 miles    
Events      
T = Trace of Precipitation, MM = Missing Value Source: NWS Daily Summary

Daily Weather History Graph

Daily Weather History Graph

Search for Another Location

Airport or City:

Trip Planner

Search our weather history database for the weather conditions in past years. The results will help you decide how hot, cold, wet, or windy it might be!

Date:

Astronomy

Jun. 12, 2013 Rise Set
Actual Time 4:24 AM AKDT 1:40 AM AKDT
Civil Twilight Sun does not rise Sun does not rise
Nautical Twilight Sun does not rise Sun does not rise
Astronomical Twilight Sun does not rise Sun does not rise
Moon 10:05 AM AKDT (6/12) 2:04 AM AKDT (6/12)
Length of Visible Light 24h 00m
Length of Day
21h 15m
Waxing Crescent, 15% of the Moon is Illuminated
Jun 12
Waxing Crescent
Jun 16
First Quarter
Jun 23
Full
Jun 29
Last Quarter
Jul 7
New

Hourly Weather History & Observations

Time (AKDT) Temp. Dew Point Humidity Pressure Visibility Wind Dir Wind Speed Gust Speed Precip Events Conditions
12:53 AM 37.0 °F 34.0 °F 89% 30.19 in 10.0 mi Calm Calm - N/A   Scattered Clouds
1:53 AM 37.0 °F 34.0 °F 89% 30.19 in 10.0 mi Calm Calm - N/A   Scattered Clouds
2:53 AM 36.0 °F 34.0 °F 93% 30.18 in 10.0 mi Calm Calm - N/A   Scattered Clouds
3:53 AM 34.0 °F 32.0 °F 92% 30.17 in 10.0 mi Calm Calm - N/A   Scattered Clouds
4:53 AM 34.0 °F 32.0 °F 92% 30.16 in 10.0 mi Calm Calm - N/A   Scattered Clouds
5:53 AM 35.1 °F 32.0 °F 89% 30.16 in 10.0 mi Calm Calm - N/A   Scattered Clouds
6:53 AM 37.9 °F 35.1 °F 89% 30.14 in 10.0 mi Calm Calm - N/A   Scattered Clouds
7:53 AM 41.0 °F 37.0 °F 86% 30.14 in 10.0 mi Calm Calm - N/A   Scattered Clouds
8:53 AM 46.9 °F 39.0 °F 74% 30.12 in 10.0 mi Calm Calm - N/A   Scattered Clouds
9:53 AM 50.0 °F 42.8 °F 76% 30.11 in 10.0 mi Calm Calm - N/A   Scattered Clouds
10:53 AM 51.8 °F 41.0 °F 67% 30.12 in 10.0 mi SE 6.9 mph - N/A   Scattered Clouds
11:53 AM 48.0 °F 37.0 °F 66% 30.12 in 10.0 mi SSE 6.9 mph - N/A   Scattered Clouds
12:53 PM 46.0 °F 37.0 °F 71% 30.12 in 10.0 mi North - - N/A   Scattered Clouds
1:53 PM 48.9 °F 37.9 °F 66% 30.11 in 10.0 mi North - - N/A   Scattered Clouds
2:53 PM 55.0 °F 39.9 °F 57% 30.10 in 10.0 mi WSW 6.9 mph - N/A   Scattered Clouds
3:53 PM 57.0 °F 41.0 °F 55% 30.09 in 10.0 mi West 8.1 mph - N/A   Scattered Clouds
4:53 PM 60.1 °F 41.0 °F 49% 30.08 in 10.0 mi WSW 8.1 mph - N/A   Mostly Cloudy
5:53 PM 62.1 °F 43.0 °F 50% 30.07 in 10.0 mi West 9.2 mph - N/A   Mostly Cloudy
6:53 PM 68.0 °F 45.0 °F 43% 30.06 in 10.0 mi West 5.8 mph - N/A   Mostly Cloudy
7:53 PM 68.0 °F 44.1 °F 42% 30.02 in 10.0 mi Variable 5.8 mph - N/A   Mostly Cloudy
8:53 PM 68.0 °F 43.0 °F 40% 30.00 in 10.0 mi WSW 8.1 mph - N/A   Mostly Cloudy
9:53 PM 69.1 °F 43.0 °F 39% 30.00 in 10.0 mi West 4.6 mph - N/A   Mostly Cloudy
10:53 PM 70.0 °F 39.9 °F 33% 29.99 in 10.0 mi NW 3.5 mph - N/A   Mostly Cloudy
11:53 PM 64.0 °F 46.9 °F 54% 29.99 in 10.0 mi North 8.1 mph - N/A   Mostly Cloudy